Change the Weather History Date:

Sunday, December 9, 2012

  Actual Average Record
Temperature  
Mean Temperature 57 °F 36 °F  
Max Temperature 62 °F 44 °F 70 °F (1966)
Min Temperature 51 °F 28 °F -2 °F (1917)
Degree Days  
Heating Degree Days 8 29  
Month to date heating degree days 114 252  
Since 1 July heating degree days 1368 1392  
Cooling Degree Days 0 0  
Month to date cooling degree days 0 0  
Year to date cooling degree days 761 557  
Growing Degree Days 6 (Base 50)    
Moisture  
Dew Point 51 °F    
Average Humidity 84    
Maximum Humidity 96    
Minimum Humidity 72    
Precipitation  
Precipitation 0.24 in 0.10 in 1.43 in (1907)
Month to date precipitation 0.43 0.89  
Year to date precipitation 41.61 39.08  
Snow  
Snow 0.00 in - - ()
Month to date snowfall 0.0  
Since 1 September snowfall 22.9  
Snow Depth 0.00 in    
Sea Level Pressure  
Sea Level Pressure 30.00 in    
Wind  
Wind Speed 5 mph (SSE)    
Max Wind Speed 15 mph    
Max Gust Speed 20 mph    
Visibility 9 miles    
Events Rain    
T = Trace of Precipitation, MM = Missing Value Source: NWS Daily Summary

Daily Weather History Graph

Daily Weather History Graph

Search for Another Location

Airport or City:

Trip Planner

Search our weather history database for the weather conditions in past years. The results will help you decide how hot, cold, wet, or windy it might be!

Date:

Astronomy

Dec. 09, 2012 Rise Set
Actual Time 7:28 AM EST 5:05 PM EST
Civil Twilight 6:59 AM EST 5:34 PM EST
Nautical Twilight 6:26 AM EST 6:07 PM EST
Astronomical Twilight 5:54 AM EST 6:39 PM EST
Moon 3:03 AM EST (12/9) 2:08 PM EST (12/9)
Length of Visible Light 10h 35m
Length of Day
9h 36m
Waning Crescent, 19% of the Moon is Illuminated
Dec 9
Waning Crescent
Dec 13
New
Dec 20
First Quarter
Dec 28
Full
Jan 4
Last Quarter

Hourly Weather History & Observations

Time (EST) Temp. Dew Point Humidity Pressure Visibility Wind Dir Wind Speed Gust Speed Precip Events Conditions
12:07 AM 51.8 °F 48.2 °F 88% 30.02 in 2.5 mi Calm Calm - N/A   Overcast
12:15 AM 51.8 °F 48.2 °F 88% 30.02 in 9.0 mi SE 4.6 mph - N/A   Overcast
12:51 AM 52.0 °F 50.0 °F 93% 30.00 in 3.0 mi ENE 3.5 mph - 0.00 in Rain Light Rain
1:51 AM 53.1 °F 50.0 °F 89% 29.99 in 10.0 mi SSE 8.1 mph - 0.00 in   Overcast
2:51 AM 52.0 °F 50.0 °F 93% 30.01 in 5.0 mi NNW 5.8 mph - 0.00 in Rain Light Rain
3:51 AM 52.0 °F 50.0 °F 93% 30.00 in 9.0 mi Calm Calm - 0.08 in Rain Light Rain
4:26 AM 51.8 °F 50.0 °F 94% 30.03 in 7.0 mi ESE 4.6 mph - 0.00 in   Overcast
4:40 AM 51.8 °F 50.0 °F 94% 30.03 in 6.0 mi SSE 3.5 mph - 0.01 in Rain Light Rain
4:51 AM 53.1 °F 51.1 °F 93% 30.01 in 8.0 mi Calm Calm - 0.01 in Rain Light Rain
5:51 AM 53.6 °F 51.8 °F 94% 30.05 in 10.0 mi South 3.5 mph - N/A   Overcast
6:51 AM 53.1 °F 51.1 °F 93% 30.05 in 10.0 mi South 4.6 mph - 0.00 in Rain Light Rain
7:51 AM 53.1 °F 50.0 °F 89% 30.06 in 10.0 mi South 3.5 mph - 0.00 in   Overcast
7:59 AM 53.6 °F 51.8 °F 94% 30.09 in 10.0 mi SSW 3.5 mph - 0.00 in Rain Light Rain
8:48 AM 55.4 °F 51.8 °F 88% 30.08 in 10.0 mi SSE 5.8 mph - 0.00 in   Mostly Cloudy
8:51 AM 55.0 °F 51.1 °F 86% 30.06 in 10.0 mi SE 4.6 mph - 0.00 in   Mostly Cloudy
9:51 AM 57.0 °F 52.0 °F 83% 30.05 in 10.0 mi South 3.5 mph - N/A   Mostly Cloudy
10:51 AM 57.0 °F 53.1 °F 87% 30.04 in 10.0 mi SSE 6.9 mph - N/A   Mostly Cloudy
11:37 AM 57.2 °F 51.8 °F 82% 30.05 in 10.0 mi SE 5.8 mph - N/A   Overcast
11:51 AM 57.0 °F 52.0 °F 83% 30.01 in 10.0 mi Calm Calm - N/A   Overcast
12:51 PM 61.0 °F 53.1 °F 75% 29.98 in 10.0 mi South 6.9 mph - N/A   Overcast
1:51 PM 60.1 °F 52.0 °F 75% 29.95 in 10.0 mi SSE 6.9 mph - N/A   Mostly Cloudy
2:51 PM 60.8 °F 51.8 °F 72% 29.99 in 10.0 mi South 4.6 mph - N/A   Scattered Clouds
3:51 PM 60.1 °F 51.1 °F 72% 29.96 in 10.0 mi SSE 3.5 mph - N/A   Overcast
4:51 PM 57.0 °F 52.0 °F 83% 29.96 in 10.0 mi West 3.5 mph - 0.00 in   Overcast
5:16 PM 57.2 °F 53.6 °F 88% 29.99 in 4.0 mi NNW 3.5 mph - 0.02 in Rain Heavy Rain
5:51 PM 55.9 °F 54.0 °F 93% 29.97 in 7.0 mi Variable 3.5 mph - 0.05 in Rain Light Rain
6:51 PM 55.9 °F 53.1 °F 90% 29.96 in 10.0 mi SSW 6.9 mph - 0.04 in Rain Light Rain
7:51 PM 55.9 °F 52.0 °F 87% 29.94 in 10.0 mi SE 5.8 mph - 0.01 in   Overcast
8:51 PM 55.9 °F 52.0 °F 87% 29.92 in 10.0 mi SE 5.8 mph - N/A   Mostly Cloudy
9:51 PM 55.9 °F 51.1 °F 84% 29.89 in 10.0 mi SSE 10.4 mph - N/A   Clear
10:51 PM 55.9 °F 50.0 °F 80% 29.88 in 10.0 mi SSE 12.7 mph - N/A   Clear
11:51 PM 55.0 °F 50.0 °F 83% 29.86 in 10.0 mi SSE 12.7 mph - N/A   Clear